Tracking 19717 objects as of 24-Jun-2019
HD Live streaming from Space Station
objects crossing your sky now

DELTA 1 R/B

Track DELTA 1 R/B now!
10-day predictions


NORAD ID: 3036
Int'l Code: 1967-114B
Perigee: 1,417.3 km
Apogee: 1,491.8 km
Inclination: 102.3 °
Period: 114.8 minutes
Semi major axis: 7825 km
RCS: 0.589 m2 (medium)
Launch date: November 10, 1967
Source: United States (US)
Launch site: AIR FORCE WESTERN TEST RANGE (AFWTR)

Note: This is a ROCKET BODY
aabbcc
Your satellite tracking list
Your tracking list is empty




NASA's NSSDC Master Catalog

Two Line Element Set (TLE):
1  3036U 67114B   19174.92811352 -.00000048 +00000-0 +31307-5 0  9996
2  3036 102.2520 184.6226 0047617 303.1027 076.9201 12.54099549362651
Source of the keplerian elements: AFSPC